Location: ??
(35.5052°N, 139.7262°E)
Time: 11:24:39
(UTC+00:00)

Envisat - Pass Details

Date: 06 October 2021
Orbit: 764 x 766 km, 98.2° (Epoch: 20 October)

Event Time Altitude Azimuth Distance (km) Brightness Sun altitude
Rises 18:52:34 0° 27° (NNE) 3,234 6.8 -22.7°
Reaches altitude 10° 18:55:17 10° 41° (NE) 2,304 6.1 -22.2°
Maximum altitude 18:59:23 24° 95° (E) 1,526 5.3 -21.3°
Drops below altitude 10° 19:03:28 10° 149° (SSE) 2,292 5.7 -20.5°
Sets 19:06:09 0° 163° (SSE) 3,213 6.3 -20.0°
